GW7108 Weather Reports


time (UTC)temp
C
wind
direction
speed
KPH
gust
KPH
rain 1hr
cm
rain 24hr
cm
rain mn
cm
humidity
%
barometer
mb
20260510233503 11 276 14.5 27.4 0.00 0.61 0.00 79 1029.7
20260510233003 11 280 14.5 27.4 0.00 0.61 0.00 79 1029.7
20260510232524 11 282 14.5 24.1 0.00 0.61 0.00 78 1029.8
20260510232003 11 278 12.9 22.5 0.00 0.61 0.00 78 1029.6
20260510231503 11 276 11.3 20.9 0.00 0.61 0.00 78 1029.5
20260510231003 11 277 12.9 29.0 0.00 0.61 0.00 77 1029.7
20260510230524 11 278 12.9 29.0 0.00 0.61 0.00 76 1029.8
20260510230003 11 279 12.9 22.5 0.00 0.64 0.00 76 1029.7
20260510225503 11 278 14.5 27.4 0.00 0.69 0.00 76 1029.8
20260510225003 11 278 12.9 27.4 0.00 0.74 0.00 75 1029.5
20260510224503 11 280 12.9 24.1 0.00 0.74 0.00 75 1029.7
20260510224003 11 282 12.9 25.7 0.00 0.74 0.00 74 1029.5
20260510223503 11 285 12.9 25.7 0.00 0.74 0.00 74 1029.7
20260510223003 11 285 12.9 22.5 0.00 0.74 0.00 74 1029.8
20260510222503 12 284 12.9 22.5 0.00 0.74 0.00 74 1029.6
20260510222003 12 281 12.9 24.1 0.00 0.74 0.00 73 1029.6
20260510221503 12 281 16.1 29.0 0.00 0.74 0.00 73 1029.8
20260510221003 12 282 16.1 29.0 0.00 0.76 0.00 73 1029.5
20260510220503 12 282 14.5 27.4 0.00 0.76 0.00 73 1029.6
20260510220025 12 279 14.5 27.4 0.00 0.76 0.00 73 1029.4
20260510215503 12 278 14.5 22.5 0.00 0.76 0.76 73 1029.4
20260510215003 12 280 12.9 22.5 0.00 0.76 0.76 71 1029.6
20260510214503 12 284 12.9 22.5 0.00 0.76 0.76 71 1029.4
20260510214003 12 288 16.1 29.0 0.00 0.76 0.76 70 1029.5
20260510213503 12 290 19.3 30.6 0.00 0.76 0.76 69 1029.4
20260510213003 12 290 19.3 30.6 0.00 0.76 0.76 69 1029.3
20260510212503 12 288 19.3 29.0 0.00 0.76 0.76 69 1029.5
20260510212003 12 286 17.7 29.0 0.00 0.76 0.76 70 1029.6
20260510211524 12 285 16.1 27.4 0.00 0.76 0.76 70 1029.3
20260510211003 12 287 14.5 24.1 0.00 0.76 0.76 70 1029.4
20260510210503 12 289 12.9 20.9 0.00 0.76 0.76 71 1029.1
20260510210004 12 285 9.7 20.9 0.00 0.76 0.76 72 1029.1
20260510205504 12 279 8.0 14.5 0.00 0.76 0.76 75 1029.3
20260510205003 12 277 9.7 17.7 0.00 0.76 0.76 75 1029.1
20260510204503 12 274 9.7 17.7 0.00 0.76 0.76 75 1029.3
20260510204004 12 268 12.9 20.9 0.00 0.76 0.76 74 1028.9
20260510203524 12 266 14.5 20.9 0.00 0.76 0.76 74 1029.1
20260510203003 12 266 14.5 22.5 0.00 0.76 0.76 73 1028.9
20260510202503 12 264 12.9 22.5 0.00 0.76 0.76 73 1029.0
20260510202003 12 261 14.5 24.1 0.00 0.76 0.76 72 1028.8
20260510201503 12 257 16.1 24.1 0.00 0.76 0.76 72 1028.8
20260510201003 12 253 16.1 24.1 0.00 0.79 0.76 71 1028.8
20260510200503 12 256 16.1 24.1 0.00 0.79 0.76 70 1028.7
20260510200024 12 262 16.1 24.1 0.00 0.79 0.76 72 1028.5
20260510195504 12 266 16.1 24.1 0.00 0.79 0.76 73 1028.7
20260510195003 12 271 14.5 24.1 0.00 0.79 0.76 73 1028.6
20260510194503 12 276 12.9 24.1 0.00 0.79 0.76 72 1028.5
20260510194003 12 279 16.1 27.4 0.00 0.79 0.76 71 1028.4
20260510193503 12 279 16.1 30.6 0.00 0.79 0.76 71 1028.4
20260510193003 12 273 14.5 30.6 0.00 0.79 0.76 73 1028.2
20260510192503 12 272 12.9 24.1 0.00 0.79 0.76 76 1028.2
20260510192003 12 277 12.9 24.1 0.00 0.79 0.76 74 1028.4
20260510191524 12 278 14.5 27.4 0.00 0.79 0.76 73 1028.6
20260510191003 12 279 17.7 29.0 0.00 0.79 0.76 71 1028.2
20260510190524 13 283 17.7 30.6 0.00 0.79 0.76 69 1028.1
20260510190004 13 285 17.7 30.6 0.00 0.79 0.76 69 1028.0
20260510185503 13 286 17.7 30.6 0.00 0.79 0.76 69 1028.0
20260510185003 13 290 19.3 35.4 0.00 0.79 0.76 69 1027.9
20260510184503 13 292 19.3 35.4 0.00 0.79 0.76 68 1028.1
20260510184003 13 293 19.3 30.6 0.00 0.79 0.76 68 1028.1
20260510183503 13 293 19.3 30.6 0.00 0.79 0.76 69 1028.1
20260510183004 13 292 17.7 30.6 0.00 0.79 0.76 70 1027.8
20260510182503 13 292 19.3 37.0 0.00 0.79 0.76 69 1028.0
20260510182003 13 293 20.9 37.0 0.00 0.79 0.76 68 1028.0
20260510181503 13 290 19.3 37.0 0.00 0.79 0.76 67 1027.9
20260510181003 13 283 17.7 37.0 0.00 0.79 0.76 68 1027.7
20260510180503 13 284 17.7 29.0 0.00 0.79 0.76 67 1027.7
20260510180003 14 289 16.1 27.4 0.00 0.79 0.76 66 1027.6
20260510175524 14 294 16.1 25.7 0.00 0.79 0.76 65 1027.9
20260510175003 14 296 16.1 25.7 0.00 0.79 0.76 64 1027.6
20260510174503 14 296 16.1 25.7 0.00 0.79 0.76 63 1027.3
20260510174024 14 301 14.5 25.7 0.00 0.79 0.76 64 1027.4
20260510173524 14 309 14.5 25.7 0.00 0.79 0.76 64 1027.9
20260510173003 14 313 14.5 27.4 0.00 0.79 0.76 67 1027.6
20260510172524 14 310 14.5 27.4 0.00 0.79 0.76 68 1028.0
20260510172003 14 307 12.9 24.1 0.00 0.79 0.76 70 1028.1
20260510171503 13 317 11.3 19.3 0.00 0.79 0.76 74 1028.3
20260510171004 13 315 11.3 19.3 0.00 0.79 0.76 75 1028.2
20260510170503 13 313 9.7 19.3 0.00 0.79 0.76 75 1028.2
20260510170024 13 334 9.7 17.7 0.00 0.79 0.76 76 1028.3
20260510165503 13 353 8.0 16.1 0.00 0.79 0.76 76 1028.3
20260510165003 13 6 9.7 17.7 0.00 0.79 0.76 78 1028.1
20260510164503 13 15 9.7 20.9 0.00 0.79 0.76 76 1028.4
20260510164003 13 6 11.3 25.7 0.00 0.79 0.76 76 1028.2
20260510163524 14 344 12.9 25.7 0.00 0.79 0.76 74 1028.1
20260510163003 15 318 14.5 29.0 0.00 0.79 0.76 66 1028.2
20260510162503 15 311 14.5 29.0 0.00 0.79 0.76 65 1028.1
20260510162024 15 309 16.1 27.4 0.00 0.79 0.76 64 1028.1
20260510161524 15 302 17.7 27.4 0.00 0.79 0.76 64 1027.8
20260510161003 15 306 17.7 27.4 0.00 0.79 0.76 65 1027.6
20260510160503 15 322 16.1 27.4 0.00 0.79 0.76 66 1027.6
20260510160004 15 331 16.1 27.4 0.00 0.79 0.76 64 1027.6
20260510155524 15 319 14.5 27.4 0.00 0.79 0.76 64 1027.7
20260510155003 15 310 12.9 24.1 0.00 0.79 0.76 67 1027.2
20260510154503 15 311 12.9 25.7 0.00 0.79 0.76 69 1027.6
20260510154003 14 303 14.5 25.7 0.00 0.79 0.76 72 1027.7
20260510153504 14 309 12.9 20.9 0.00 0.79 0.76 71 1027.7
20260510153003 14 321 9.7 17.7 0.00 0.79 0.76 72 1027.8
20260510152503 14 328 9.7 17.7 0.00 0.79 0.76 73 1027.9
20260510152003 14 336 11.3 19.3 0.00 0.79 0.76 76 1027.7
20260510151503 14 346 9.7 19.3 0.00 0.79 0.76 73 1027.8
20260510151003 14 353 8.0 17.7 0.00 0.79 0.76 76 1027.8
20260510150524 14 334 8.0 17.7 0.03 0.79 0.76 77 1027.8
20260510150003 14 314 8.0 16.1 0.03 0.79 0.76 77 1027.8
20260510145503 13 314 8.0 16.1 0.03 0.81 0.76 78 1028.1
20260510145003 13 326 8.0 17.7 0.03 0.84 0.76 81 1027.8
20260510144503 12 343 9.7 17.7 0.03 0.84 0.76 82 1028.0
20260510144003 12 347 8.0 14.5 0.05 0.84 0.76 83 1028.1
20260510143503 12 333 6.4 14.5 0.08 0.84 0.76 84 1028.3
20260510143003 12 331 6.4 12.9 0.10 0.84 0.76 86 1028.2
20260510142503 11 340 8.0 14.5 0.10 0.84 0.76 88 1028.4
20260510142003 11 351 8.0 17.7 0.10 0.84 0.76 90 1028.5
20260510141503 11 356 9.7 17.7 0.10 0.84 0.76 91 1028.3
20260510141003 10 353 9.7 19.3 0.10 0.81 0.76 91 1028.5
20260510140524 10 356 11.3 22.5 0.10 0.79 0.74 90 1028.8
20260510135509 11 349 9.7 20.9 0.10 0.79 0.74 91 1028.9
20260510135030 10 354 11.3 24.1 0.10 0.79 0.74 92 1028.6
20260510134503 10 355 16.1 37.0 0.10 0.79 0.74 90 1028.7
20260510134003 10 356 19.3 45.1 0.10 0.79 0.71 89 1029.0
20260510133524 11 337 22.5 45.1 0.05 0.76 0.69 87 1028.8
20260510133003 13 304 24.1 45.1 0.05 0.76 0.66 80 1028.3
20260510132524 13 288 20.9 43.5 0.03 0.79 0.66 76 1028.2
20260510132004 13 287 19.3 35.4 0.03 0.79 0.66 77 1028.2
20260510131507 13 291 20.9 30.6 0.03 0.79 0.66 77 1028.0
20260510131003 13 296 22.5 38.6 0.03 0.81 0.66 77 1028.4
20260510130503 13 297 22.5 38.6 0.00 0.79 0.64 73 1027.9
20260510130003 13 294 20.9 38.6 0.00 0.79 0.64 71 1028.1
20260510125503 13 293 20.9 35.4 0.00 0.79 0.64 72 1028.0
20260510125024 13 298 20.9 35.4 0.00 0.79 0.64 70 1028.2
20260510124506 13 301 20.9 37.0 0.00 0.79 0.64 72 1028.0
20260510124003 13 301 19.3 37.0 0.00 0.79 0.64 71 1027.9
20260510123506 13 302 19.3 37.0 0.00 0.79 0.64 71 1028.0
20260510123003 13 300 20.9 37.0 0.00 0.79 0.64 72 1028.2
20260510122503 13 298 19.3 33.8 0.00 0.79 0.64 72 1028.0
20260510122005 13 300 19.3 35.4 0.00 0.79 0.64 78 1028.1
20260510121503 13 303 19.3 35.4 0.00 0.79 0.64 75 1028.0
20260510121003 13 304 17.7 32.2 0.00 0.79 0.64 74 1028.4
20260510120503 12 303 17.7 30.6 0.00 0.79 0.64 75 1028.2
20260510120003 12 293 14.5 27.4 0.00 0.79 0.64 78 1028.3
20260510115503 12 289 12.9 24.1 0.00 0.79 0.64 80 1028.2
20260510115003 12 296 12.9 22.5 0.00 0.79 0.64 83 1028.5
20260510114503 11 297 14.5 24.1 0.00 0.79 0.64 83 1028.5
20260510114003 11 297 14.5 24.1 0.00 0.79 0.64 83 1028.6
20260510113503 11 298 14.5 27.4 0.00 0.79 0.64 84 1028.3
20260510113024 11 296 14.5 27.4 0.00 0.79 0.64 84 1028.7
20260510112503 11 298 14.5 29.0 0.00 0.79 0.64 85 1028.8
20260510112003 11 312 14.5 29.0 0.03 0.79 0.64 84 1028.4
20260510111503 11 326 14.5 30.6 0.05 0.79 0.64 86 1028.5
20260510111003 11 326 14.5 30.6 0.10 0.79 0.64 86 1028.6
20260510110503 11 325 14.5 30.6 0.23 0.84 0.64 86 1028.5
20260510110003 11 333 14.5 25.7 0.30 0.86 0.64 85 1028.4
20260510105503 11 332 14.5 25.7 0.38 0.94 0.64 87 1028.7
20260510105003 11 327 14.5 25.7 0.38 0.97 0.64 87 1028.7
20260510104503 11 332 12.9 24.1 0.38 0.97 0.64 90 1028.6
20260510104003 11 339 12.9 29.0 0.38 0.99 0.64 91 1028.5
20260510103524 11 339 14.5 29.0 0.38 0.99 0.64 91 1028.7
20260510103003 10 336 16.1 27.4 0.38 0.99 0.64 92 1028.9
20260510102503 10 334 19.3 37.0 0.38 0.99 0.61 91 1028.8
20260510102003 10 339 19.3 37.0 0.36 0.97 0.61 90 1028.9
20260510101503 10 346 16.1 33.8 0.33 0.94 0.58 90 1028.6
20260510101003 11 331 17.7 33.8 0.28 0.89 0.53 89 1028.5
20260510100503 11 322 17.7 33.8 0.15 0.76 0.41 88 1028.4
20260510100003 12 330 14.5 29.0 0.10 0.71 0.33 86 1028.2
20260510095503 12 334 14.5 29.0 0.03 0.64 0.25 83 1028.1
20260510095024 12 337 16.1 32.2 0.00 0.61 0.25 81 1027.9
20260510094503 13 322 19.3 33.8 0.00 0.61 0.25 77 1028.1
20260510094003 14 301 22.5 38.6 0.00 0.61 0.23 71 1027.9
20260510093503 14 296 24.1 46.7 0.00 0.61 0.23 69 1027.7
20260510093003 15 291 27.4 46.7 0.00 0.61 0.23 67 1027.8
20260510092503 15 290 27.4 45.1 0.00 0.61 0.23 67 1027.4
20260510092003 15 295 25.7 46.7 0.00 0.61 0.23 67 1027.7
20260510091503 15 292 25.7 46.7 0.00 0.61 0.23 67 1027.3
20260510091003 14 286 22.5 46.7 0.00 0.61 0.23 69 1027.3
20260510090524 14 284 24.1 46.7 0.00 0.61 0.23 69 1027.4
20260510090003 14 286 25.7 46.7 0.00 0.69 0.23 68 1027.8
20260510085503 14 284 22.5 38.6 0.00 0.94 0.23 68 1027.7
20260510085003 14 281 19.3 33.8 0.00 0.97 0.23 69 1027.8
20260510084503 14 282 20.9 40.2 0.00 0.97 0.23 72 1027.9
20260510084003 13 281 20.9 40.2 0.00 0.97 0.23 70 1027.8
20260510083503 13 277 20.9 35.4 0.00 0.97 0.23 72 1027.7
20260510083024 13 274 17.7 30.6 0.00 0.97 0.23 72 1027.9
20260510082503 13 278 14.5 29.0 0.00 0.97 0.23 74 1027.8
20260510082003 13 276 16.1 35.4 0.00 0.97 0.23 74 1027.9
20260510081504 13 270 17.7 35.4 0.00 0.97 0.23 76 1028.0
20260510081003 13 269 16.1 35.4 0.00 0.97 0.23 76 1028.0
20260510080524 13 268 17.7 27.4 0.00 0.97 0.23 75 1027.9
20260510080003 13 265 19.3 33.8 0.00 0.97 0.23 76 1028.0
20260510075503 13 266 19.3 33.8 0.00 0.97 0.23 75 1028.0
20260510075003 13 276 17.7 30.6 0.00 0.97 0.23 75 1027.9
20260510074503 13 280 17.7 29.0 0.00 0.97 0.23 75 1027.9
20260510074024 13 274 16.1 29.0 0.00 0.97 0.23 76 1027.8
20260510073503 12 267 16.1 25.7 0.00 0.97 0.23 79 1027.9
20260510073003 12 260 17.7 25.7 0.00 0.97 0.23 78 1027.9
20260510072503 12 262 16.1 25.7 0.00 0.97 0.23 79 1028.0
20260510072024 12 268 16.1 29.0 0.00 0.97 0.23 79 1028.0
20260510071503 12 269 17.7 30.6 0.00 0.97 0.23 79 1028.0
20260510071003 12 268 19.3 33.8 0.00 0.97 0.23 78 1027.7
20260510070503 12 268 19.3 33.8 0.00 0.97 0.23 77 1027.7
20260510070003 12 266 19.3 30.6 0.00 0.97 0.23 78 1027.6
20260510065503 12 263 19.3 30.6 0.00 0.97 0.23 77 1027.6
20260510065003 12 265 16.1 27.4 0.00 0.97 0.23 77 1027.6
20260510064503 12 274 16.1 29.0 0.00 0.97 0.23 77 1027.7
20260510064003 12 277 16.1 29.0 0.00 0.97 0.23 78 1027.8
20260510063504 12 273 14.5 25.7 0.00 0.97 0.23 79 1027.6
20260510063003 12 268 16.1 30.6 0.00 0.97 0.23 81 1027.9
20260510062503 12 266 17.7 30.6 0.00 0.97 0.23 80 1027.7
20260510062024 12 263 16.1 27.4 0.00 0.97 0.23 81 1027.7
20260510061503 11 264 14.5 25.7 0.00 0.97 0.23 82 1027.2
20260510061003 11 268 12.9 20.9 0.00 0.97 0.23 83 1027.7
20260510060503 11 269 12.9 20.9 0.00 0.97 0.23 84 1027.3
20260510060024 11 268 12.9 20.9 0.00 0.97 0.23 85 1027.4
20260510055503 11 268 14.5 22.5 0.00 0.97 0.23 85 1027.4
20260510055003 11 268 14.5 24.1 0.00 0.97 0.23 85 1027.6
20260510054503 11 267 14.5 24.1 0.00 0.97 0.23 86 1027.4
20260510054003 11 267 12.9 20.9 0.00 0.97 0.23 86 1027.4
20260510053503 11 272 12.9 22.5 0.00 0.97 0.23 86 1027.4
20260510053003 11 276 11.3 22.5 0.00 0.97 0.23 86 1027.3
20260510052503 11 270 11.3 19.3 0.00 0.97 0.23 86 1027.6
20260510052003 11 263 9.7 17.7 0.00 0.97 0.23 86 1027.6
20260510051503 11 265 8.0 17.7 0.00 0.97 0.23 85 1027.3
20260510051024 11 271 8.0 16.1 0.00 0.97 0.23 85 1027.4
20260510050503 11 263 9.7 17.7 0.00 0.97 0.23 86 1027.7
20260510050003 11 254 9.7 17.7 0.00 0.97 0.23 87 1027.4
20260510045524 11 250 9.7 16.1 0.00 0.97 0.23 86 1027.6
20260510045003 11 246 9.7 16.1 0.00 0.97 0.23 85 1027.6
20260510044503 11 249 9.7 16.1 0.00 0.97 0.23 84 1027.7
20260510044003 11 255 9.7 14.5 0.00 0.97 0.23 85 1027.4
20260510043503 11 245 9.7 16.1 0.00 0.97 0.23 85 1027.6
20260510043003 11 243 9.7 16.1 0.00 0.97 0.23 86 1027.8
20260510042503 11 251 8.0 12.9 0.00 0.97 0.23 88 1027.9
20260510042003 11 252 6.4 12.9 0.00 0.97 0.23 89 1027.6
20260510041503 11 243 6.4 12.9 0.00 0.97 0.23 88 1027.7
20260510041003 11 245 6.4 12.9 0.00 0.97 0.23 88 1027.9
20260510040503 11 256 6.4 9.7 0.00 0.97 0.23 88 1027.7
20260510040024 11 250 6.4 9.7 0.00 0.97 0.23 87 1027.8
20260510035503 11 245 6.4 9.7 0.03 0.97 0.23 87 1027.8
20260510035003 11 249 6.4 9.7 0.08 0.97 0.23 87 1027.9
20260510034503 11 249 6.4 9.7 0.08 0.97 0.23 88 1027.8
20260510034003 11 243 6.4 14.5 0.08 0.97 0.23 87 1027.9
20260510033503 11 234 8.0 14.5 0.08 0.97 0.23 87 1028.0
20260510033003 11 235 8.0 14.5 0.08 0.97 0.23 87 1027.7
20260510032503 11 242 8.0 12.9 0.08 0.97 0.23 88 1027.7
20260510032003 11 261 8.0 16.1 0.08 0.97 0.23 88 1028.0
20260510031503 11 280 9.7 16.1 0.08 0.97 0.23 87 1028.0
20260510031003 11 287 11.3 17.7 0.08 0.97 0.23 88 1028.1
20260510030503 11 291 11.3 17.7 0.08 0.97 0.23 87 1028.0
20260510030003 11 289 9.7 17.7 0.08 0.97 0.23 87 1028.0
20260510025503 11 279 9.7 14.5 0.05 0.94 0.20 85 1028.0
20260510025003 11 263 9.7 16.1 0.00 0.89 0.18 84 1028.1
20260510024503 11 248 11.3 17.7 0.00 0.89 0.18 83 1028.1
20260510024024 11 242 9.7 17.7 0.00 0.89 0.18 82 1028.2
20260510023503 11 227 11.3 16.1 0.00 0.89 0.18 83 1027.9
20260510023003 11 213 9.7 16.1 0.00 0.89 0.18 83 1028.1
20260510022503 11 210 9.7 14.5 0.00 0.89 0.18 84 1028.1
20260510022003 11 215 8.0 16.1 0.00 0.89 0.18 84 1028.1
20260510021503 11 222 8.0 16.1 0.00 0.89 0.18 84 1028.1
20260510021003 10 223 9.7 16.1 0.00 0.89 0.18 84 1028.2
20260510020503 10 228 9.7 17.7 0.00 0.89 0.18 84 1028.0
20260510020004 10 225 8.0 17.7 0.00 0.89 0.18 84 1028.1
20260510015524 10 219 8.0 16.1 0.00 0.89 0.18 84 1028.2
20260510015024 10 227 9.7 17.7 0.00 0.89 0.18 85 1028.1
20260510014503 10 228 11.3 20.9 0.00 0.89 0.18 85 1028.4
20260510014003 10 226 11.3 20.9 0.00 0.89 0.18 86 1028.0
20260510013503 10 221 11.3 19.3 0.00 0.89 0.18 87 1028.2
20260510013003 10 219 11.3 19.3 0.00 0.89 0.18 87 1028.3
20260510012503 10 223 11.3 19.3 0.00 0.89 0.18 87 1028.2
20260510012003 10 220 11.3 19.3 0.00 0.89 0.18 87 1028.3
20260510011503 10 222 11.3 19.3 0.00 0.89 0.18 87 1028.4
20260510011003 10 237 11.3 17.7 0.00 0.89 0.18 86 1028.1
20260510010503 11 254 11.3 17.7 0.00 0.89 0.18 85 1028.6
20260510010003 10 251 11.3 19.3 0.00 0.89 0.18 86 1028.3
20260510005503 11 247 11.3 20.9 0.00 0.89 0.18 85 1028.4
20260510005003 11 265 11.3 24.1 0.00 0.89 0.18 85 1028.3
20260510004503 11 275 12.9 24.1 0.00 0.89 0.18 83 1028.4
20260510004003 11 276 14.5 25.7 0.00 0.89 0.18 84 1028.3
20260510003503 11 271 12.9 25.7 0.00 0.89 0.18 85 1028.4
20260510003024 11 267 11.3 20.9 0.00 0.89 0.18 86 1028.5
20260510002503 11 274 11.3 22.5 0.00 0.89 0.18 87 1028.6
20260510002003 11 285 12.9 24.1 0.00 0.89 0.18 86 1028.5
20260510001503 11 290 12.9 24.1 0.00 0.89 0.18 86 1028.3
20260510001003 11 288 12.9 24.1 0.03 0.89 0.18 87 1028.5
20260510000503 11 287 14.5 25.7 0.03 0.89 0.18 87 1028.4
20260510000003 11 286 12.9 25.7 0.05 0.89 0.18 88 1028.4
20260509235503 11 284 11.3 20.9 0.10 0.89 0.18 90 1028.4
20260509235003 11 284 9.7 16.1 0.15 0.89 0.18 91 1028.6
20260509234503 11 289 9.7 16.1 0.15 0.89 0.15 92 1028.4
20260509234024 11 298 8.0 16.1 0.15 0.89 0.15 92 1028.6